Details for QantasLink at YPAD




Go Back


Latest METAR
Local Time

YPAD 150500Z 25014KT 9999 FEW023 SCT030 BKN035 14/08 Q1012 INTER 0500/0600 28018G30KT 5000 SHRA SCT020
15/08/2018, 14:50:03

Description
Results
QantasLink Logo
Number of Pilots based at YPAD
0 Pilots Based here
Number of QantasLink Flights Departed from YPAD
0 Flights Departed
Number of QantasLink Flights Arrived at YPAD
0 Flights Arrived
Number of QantasLink Schedules Departing from YPAD
9 Schedules
Number of QantasLink Schedules Arriving at YPAD
9 Schedules
Number of QantasLink Schedules Departing from YPAD availible today
6 Schedules Today
Number of QantasLink Schedules Arriving at YPAD availible today
6 Schedules Today
Average Landing Rate at YPAD
-93 fpm
QantasLink Average Landing Rate at YPAD
0 fpm
Total Fuel Purchased at YPAD by QantasLink
0.00 kgs / 0.00 lbs

Pilots Based at YPAD


Pilot ID
Pilot Name
Pilot Rank
No. of Flights
No. of Flying Hours
There are no pilots assigned to this hub!   Will you be the first?
Content